Date String (YYYY-MM-DD hh:mm:ss) UTC,Instrument flags,Ambient pressure (hPa),Sample flow (lpm),Bypass flow (lpm),Sample temperature (°C),Ambient temperature (°C),ASC tube jacket temperature (°C),LED temperature (°C),Box temperature (°C),Sample RH (%),Span deviation,Mass concentration (μg/m³),Mass concentration (μg/m³),Mass concentration (μg/m³)
DateTimeUTC,F1_M11,P_M11,Q1_M11,Q2_M11,T1_M11,T2_M11,T3_M11,T4_M11,T5_M11,U1_M11,ZSPAN_M11,X2_M11,X0_M11,X1_M11
2023-02-07 14:00:00,,0828.4,5.01,0.00,22.2,20.7,00.0,31.2,24.0,06.6,0000.0,0001.40,0002.02,0001.10
2023-02-07 14:01:00,,0828.4,5.00,0.00,22.2,20.6,00.0,31.1,23.9,06.6,0000.0,0001.38,0001.95,0001.10
2023-02-07 14:02:00,,0828.4,5.00,0.00,22.2,20.6,00.0,31.1,23.9,06.4,0000.0,0001.41,0002.04,0001.11
2023-02-07 14:03:00,,0828.4,5.00,0.00,22.2,20.5,00.0,31.1,23.9,06.3,0000.0,0001.45,0002.16,0001.12
2023-02-07 14:04:00,,0828.4,5.00,0.00,22.2,20.9,00.0,31.1,23.9,06.3,0000.0,0001.43,0002.13,0001.11
2023-02-07 14:05:00,,0828.4,5.00,0.00,22.3,21.9,00.0,31.1,24.2,06.3,0000.0,0001.41,0002.06,0001.10
2023-02-07 14:06:00,,0828.5,5.01,0.00,22.4,22.7,00.0,31.1,24.4,06.3,0000.0,0001.43,0002.12,0001.10
2023-02-07 14:07:00,,0828.5,4.98,0.00,22.5,22.5,00.0,31.1,24.4,06.3,0000.0,0001.41,0002.08,0001.10
2023-02-07 14:08:00,,0828.5,5.01,0.00,22.5,22.1,00.0,31.2,24.3,06.3,0000.0,0001.44,0002.15,0001.10
2023-02-07 14:09:00,,0828.5,5.00,0.00,22.5,21.7,00.0,31.2,24.3,06.3,0000.0,0001.42,0002.29,0001.09
2023-02-07 14:10:00,,0828.5,4.99,0.00,22.4,21.5,00.0,31.2,24.2,06.4,0000.0,0001.44,0002.35,0001.08
2023-02-07 14:11:00,,0828.4,5.00,0.00,22.4,21.2,00.0,31.2,24.1,06.5,0000.0,0001.45,0002.41,0001.08
2023-02-07 14:12:00,,0828.6,5.00,0.00,22.4,21.0,00.0,31.2,24.1,06.5,0000.0,0001.48,0002.48,0001.09
2023-02-07 14:13:00,,0828.7,5.01,0.00,22.4,20.9,00.0,31.2,24.1,06.5,0000.0,0001.46,0002.40,0001.09
2023-02-07 14:14:00,,0828.6,5.00,0.00,22.3,20.9,00.0,31.2,24.0,06.5,0000.0,0001.44,0002.34,0001.08
2023-02-07 14:15:00,,0828.5,4.99,0.00,22.3,20.8,00.0,31.2,24.0,06.6,0000.0,0001.45,0002.37,0001.09
2023-02-07 14:16:00,,0828.5,4.99,0.00,22.3,20.7,00.0,31.2,24.0,06.7,0000.0,0001.47,0002.40,0001.10
2023-02-07 14:17:00,,0828.5,5.02,0.00,22.3,20.7,00.0,31.2,23.9,06.6,0000.0,0001.46,0002.37,0001.10
2023-02-07 14:18:00,,0828.5,5.03,0.00,22.2,20.6,00.0,31.2,23.9,06.6,0000.0,0001.45,0002.34,0001.10
2023-02-07 14:19:00,,0828.5,4.96,0.00,22.2,20.6,00.0,31.2,23.9,06.5,0000.0,0001.39,0002.22,0001.09
2023-02-07 14:20:00,,0828.5,5.01,0.00,22.2,20.5,00.0,31.2,23.8,06.5,0000.0,0001.38,0002.08,0001.10
2023-02-07 14:21:00,,0828.7,5.05,0.00,22.2,20.9,00.0,31.1,23.9,06.5,0000.0,0001.38,0002.05,0001.10
2023-02-07 14:22:00,,0828.9,4.99,0.00,22.3,22.0,00.0,31.1,24.2,06.7,0000.0,0001.39,0002.08,0001.10
2023-02-07 14:23:00,,0828.9,4.99,0.00,22.4,23.0,00.0,31.1,24.5,06.6,0000.0,0001.38,0002.06,0001.09
2023-02-07 14:24:00,,0828.9,5.05,0.00,22.5,22.9,00.0,31.2,24.5,06.6,0000.0,0001.39,0002.35,0001.08
2023-02-07 14:25:00,,0828.9,4.98,0.00,22.5,22.4,00.0,31.2,24.4,06.5,0000.0,0001.36,0002.70,0001.08
2023-02-07 14:26:00,,0829.1,5.01,0.00,22.5,22.0,00.0,31.2,24.4,06.6,0000.0,0001.37,0002.73,0001.07
2023-02-07 14:27:00,,0829.0,5.02,0.00,22.5,21.6,00.0,31.3,24.3,06.6,0000.0,0001.38,0002.77,0001.08
2023-02-07 14:28:00,,0828.9,5.02,0.00,22.5,21.4,00.0,31.3,24.2,06.5,0000.0,0001.38,0002.74,0001.08
2023-02-07 14:29:00,,0829.1,5.00,0.00,22.4,21.2,00.0,31.3,24.2,06.5,0000.0,0001.44,0002.88,0001.09
2023-02-07 14:30:00,,0829.1,5.01,0.00,22.4,21.1,00.0,31.3,24.1,06.4,0000.0,0001.47,0002.94,0001.09
2023-02-07 14:31:00,,0828.7,5.01,0.00,22.4,21.0,00.0,31.3,24.1,06.5,0000.0,0001.45,0002.90,0001.08
2023-02-07 14:32:00,,0829.0,4.98,0.00,22.4,20.9,00.0,31.3,24.1,06.5,0000.0,0001.47,0002.94,0001.08
2023-02-07 14:33:00,,0829.1,5.00,0.00,22.4,20.8,00.0,31.3,24.0,06.5,0000.0,0001.41,0002.83,0001.06
2023-02-07 14:34:00,,0828.8,4.99,0.00,22.3,20.8,00.0,31.3,24.0,06.5,0000.0,0001.40,0002.81,0001.06
2023-02-07 14:35:00,,0828.8,5.01,0.00,22.3,20.8,00.0,31.3,24.0,06.4,0000.0,0001.42,0002.70,0001.05
2023-02-07 14:36:00,,0828.7,5.00,0.00,22.3,20.7,00.0,31.2,23.9,06.4,0000.0,0001.45,0002.53,0001.05
2023-02-07 14:37:00,,0828.8,5.01,0.00,22.3,20.7,00.0,31.2,23.9,06.3,0000.0,0001.46,0003.59,0001.04
2023-02-07 14:38:00,,0829.0,5.02,0.00,22.2,20.7,00.0,31.2,23.9,06.3,0000.0,0001.44,0003.85,0001.03
2023-02-07 14:39:00,,0829.1,5.00,0.00,22.2,20.7,00.0,31.2,23.9,06.4,0000.0,0001.43,0003.95,0001.02
2023-02-07 14:40:00,,0829.1,5.01,0.00,22.3,21.5,00.0,31.2,24.1,06.3,0000.0,0001.39,0003.94,0001.00
2023-02-07 14:41:00,,0828.7,5.00,0.00,22.4,22.6,00.0,31.1,24.3,06.3,0000.0,0001.33,0003.82,0000.99
2023-02-07 14:42:00,,0828.7,5.00,0.00,22.5,22.7,00.0,31.2,24.5,06.3,0000.0,0001.33,0003.82,0000.99
2023-02-07 14:43:00,,0828.7,5.00,0.00,22.5,22.3,00.0,31.2,24.4,06.3,0000.0,0001.31,0003.76,0000.99
2023-02-07 14:44:00,,0828.7,4.98,0.00,22.5,22.0,00.0,31.3,24.3,06.1,0000.0,0001.34,0003.83,0000.99
2023-02-07 14:45:00,,0828.7,5.00,0.00,22.5,21.7,00.0,31.3,24.3,06.2,0000.0,0001.36,0003.87,0001.00
2023-02-07 14:46:00,,0828.8,5.01,0.00,22.5,21.5,00.0,31.3,24.2,06.3,0000.0,0001.35,0003.84,0001.00
2023-02-07 14:47:00,,0829.2,5.03,0.00,22.5,21.4,00.0,31.3,24.2,06.3,0000.0,0001.38,0003.94,0001.01
2023-02-07 14:48:00,,0829.3,5.00,0.00,22.4,21.3,00.0,31.3,24.2,06.2,0000.0,0001.35,0002.88,0001.02
2023-02-07 14:49:00,,0829.3,4.99,0.00,22.4,21.2,00.0,31.3,24.1,06.2,0000.0,0001.32,0002.36,0001.01
2023-02-07 14:50:00,,0829.4,4.99,0.00,22.4,21.1,00.0,31.3,24.1,06.2,0000.0,0001.35,0002.67,0001.02
2023-02-07 14:51:00,,0829.3,4.98,0.00,22.4,21.0,00.0,31.3,24.1,06.2,0000.0,0001.38,0003.73,0001.03
2023-02-07 14:52:00,,0829.3,5.00,0.00,22.4,21.0,00.0,31.3,24.1,06.2,0000.0,0001.41,0003.79,0001.03
2023-02-07 14:53:00,,0829.1,5.00,0.00,22.4,21.0,00.0,31.3,24.1,06.2,0000.0,0001.43,0003.81,0001.03
2023-02-07 14:54:00,,0828.8,5.00,0.00,22.4,20.9,00.0,31.3,24.1,06.2,0000.0,0001.44,0004.06,0001.03
2023-02-07 14:55:00,,0828.8,5.00,0.00,22.3,20.9,00.0,31.3,24.0,06.1,0000.0,0001.44,0004.96,0001.04
2023-02-07 14:56:00,,0829.0,5.01,0.00,22.3,20.9,00.0,31.3,24.1,06.2,0000.0,0001.42,0005.16,0001.04
2023-02-07 14:57:00,,0828.9,5.01,0.00,22.3,20.9,00.0,31.2,24.1,06.2,0000.0,0001.43,0005.37,0001.04
2023-02-07 14:58:00,,0828.9,4.99,0.00,22.3,20.8,00.0,31.2,24.0,06.3,0000.0,0001.40,0005.68,0001.02
2023-02-07 14:59:00,,0828.9,5.02,0.00,22.3,20.8,00.0,31.2,24.0,06.5,0000.0,0001.37,0005.68,0001.02
